HAIYANG-2B (43655 NORAD) Tracking and Keplerian Element Data

This shows tracking and keplerian element data for the satellite.

Feedback or suggestion? Click here.




ElementValue
Catalog43655
NameHAIYANG-2B
Epoch Orbit258
Epoch Day316.70834845
Epoch Year2018
RAAN321.8667
Inclination99.3508
Eccentricity0.0001736
Argument of Perigee59.9307
Mean Anonmoly300.1997
Mean Motion13.79294913
Decay Rate-3.09E-06
L11 43655U 18081A 18316.70834845 -.00000309 00000-0 -25839-3 0 9993
L22 43655 99.3508 321.8667 0001736 59.9307 300.1997 13.79294913 2584

Live tracking and technical data element details for HAIYANG-2B (NORAD 43655). HAIYANG-2B can be tracked NOW for your location showing map with azimuth and elevation plus other details from your city location.

Track the satellite on the map from your city or location and see movement details for azimuth, elevation, latitude, longitude, range, height, and movement on the map or in text.







IsCatalogInMostPopularTable: catalog: 43655, numindb: 5
Update: records affected: 1



GetName: 43655 HAIYANG-2B

Hit Count: updated at: Tue, 13 Nov 2018 07:33:14 GMT